This is the latest recevied weather packets stored in our database for station/object HI3RRR-13. If no packets are shown the sender has not sent any weather packets the latest 10 day(s).
| Time | Temp. | Humidity | Pressure | Rain* | Wind** | Luminosity | Snow |
|---|---|---|---|---|---|---|---|
| 1788535528 | 30.56° C | 67% | 1016 hPa | 0 mm | - | - | - |
| 1788534927 | 30.56° C | 67% | 1016 hPa | 0 mm | - | - | - |
| 1788534327 | 30.56° C | 69% | 1016 hPa | 0 mm | - | - | - |
| 1788533751 | 30° C | 74% | 1016 hPa | 0 mm | - | - | - |
| 1788533125 | 30° C | 74% | 1016 hPa | 0 mm | - | - | - |
| 1788532524 | 29.44° C | 74% | 1016 hPa | 0 mm | - | - | - |
| 1788531923 | 29.44° C | 73% | 1016 hPa | 0 mm | - | - | - |
| 1788531322 | 29.44° C | 73% | 1016 hPa | 0 mm | - | - | - |
| 1788530721 | 29.44° C | 73% | 1016 hPa | 0 mm | - | - | - |
| 1788530120 | 30° C | 72% | 1016 hPa | 0 mm | - | - | - |
| 1788529519 | 30.56° C | 72% | 1016 hPa | 0 mm | - | - | - |
| 1788528918 | 27.78° C | 78% | 1016 hPa | 0 mm | - | - | - |
| 1788528317 | 27.78° C | 79% | 1016 hPa | 0 mm | - | - | - |
| 1788527716 | 27.78° C | 80% | 1016 hPa | 0 mm | - | - | - |
| 1788527115 | 27.78° C | 83% | 1016 hPa | 0 mm | - | - | - |
| 1788526513 | 28.33° C | 93% | 1016 hPa | 0 mm | - | - | - |
| 1788525912 | 28.89° C | 93% | 1016 hPa | 0 mm | - | - | - |
| 1788525311 | 23.33° C | 96% | 1016 hPa | 0 mm | - | - | - |
| 1788524939 | 23.33° C | 96% | 1016 hPa | 0 mm | - | - | - |
| 1788524338 | 23.33° C | 97% | 1016 hPa | 0 mm | - | - | - |
| 1788523738 | 22.22° C | 99% | 1016 hPa | 0 mm | - | - | - |
| 1788523137 | 22.22° C | 99% | 1016 hPa | 0 mm | - | - | - |
| 1788522537 | 22.22° C | 99% | 1016 hPa | 0 mm | - | - | - |
| 1788521936 | 22.22° C | 99% | 1016 hPa | 0 mm | - | - | - |
| 1788521335 | 22.22° C | 99% | 1015 hPa | 0 mm | - | - | - |
* Rain latest hour (hover to see other rain measurements)
** Current wind speed in m/s (hover to see current wind gust speed)